Location: Little Chesterford
(52.0500°N, 0.1833°E)
Time: 20:05:51
(UTC+00:00)

Cosmos 1980 - Pass Details

Date: 26 September 2023
Orbit: 837 x 848 km, 71.0° (Epoch: 09 December)

Event Time Altitude Azimuth Distance (km) Brightness Sun altitude
Rises 20:19:07 0° 195° (SSW) 3,378 6.7 -23.0°
Enters shadow 20:20:56 - 193° (SSW) 2,689 6.1 -23.2°
Exits shadow 20:27:20 59° 101° (ESE) 963 3.6 -24.1°
Drops below altitude 10° 20:32:38 10° 36° (NE) 2,463 6.1 -24.7°
Sets 20:35:06 0° 33° (NNE) 3,402 6.9 -25.1°
